DW8749 Weather Reports


Display with metric or nautical units.
time (UTC)temp
F
wind
direction
speed
MPH
gust
MPH
rain 1hr
in
rain 24hr
in
rain mn
in
humidity
%
barometer
mb
20260504100505 61 182 4.0 12.0 0.00 0.00 0.00 47 1003.4
20260504082007 64 215 6.0 12.0 0.00 0.00 0.00 43 1004.0
20260504081517 64 210 4.0 10.0 0.00 0.00 0.00 43 1004.1
20260504081009 64 271 3.0 10.0 0.00 0.00 0.00 42 1004.1
20260504080507 64 195 3.0 10.0 0.00 0.00 0.00 42 1004.2
20260504050512 69 183 4.0 9.0 0.00 0.00 0.00 33 1005.5
20260504050022 69 173 3.0 7.0 0.00 0.00 0.00 33 1005.6
20260504045506 69 219 4.0 10.0 0.00 0.00 0.00 33 1005.6
20260504045009 69 195 4.0 10.0 0.00 0.00 0.00 33 1005.6
20260504044520 69 175 3.0 8.0 0.00 0.00 0.00 32 1005.6
20260504044005 70 150 4.0 8.0 0.00 0.00 0.00 32 1005.7
20260504043503 70 184 4.0 8.0 0.00 0.00 0.00 32 1005.6
20260504043010 70 173 3.0 8.0 0.00 0.00 0.00 31 1005.8
20260504042508 70 161 3.0 10.0 0.00 0.00 0.00 32 1005.9
20260504042007 70 161 5.0 12.0 0.00 0.00 0.00 31 1005.9
20260504041518 71 183 4.0 12.0 0.00 0.00 0.00 31 1005.9
20260504041006 71 164 3.0 8.0 0.00 0.00 0.00 30 1005.9
20260504040506 71 182 4.0 8.0 0.00 0.00 0.00 30 1006.0
20260504040038 72 145 3.0 8.0 0.00 0.00 0.00 29 1006.1
20260504035512 72 187 3.0 14.0 0.00 0.00 0.00 29 1006.0
20260504035010 72 205 5.0 14.0 0.00 0.00 0.00 28 1006.1
20260504034508 72 157 5.0 10.0 0.00 0.00 0.00 28 1006.2
20260504034002 73 206 4.0 10.0 0.00 0.00 0.00 27 1006.4
20260504033504 73 192 3.0 13.0 0.00 0.00 0.00 27 1006.3
20260504033013 73 173 4.0 13.0 0.00 0.00 0.00 27 1006.2
20260504032505 74 150 5.0 9.0 0.00 0.00 0.00 26 1006.2
20260504032008 74 156 3.0 9.0 0.00 0.00 0.00 26 1006.2
20260504031520 74 197 5.0 9.0 0.00 0.00 0.00 26 1006.2
20260504031008 73 192 3.0 7.0 0.00 0.00 0.00 26 1006.1
20260504030508 73 157 3.0 6.0 0.00 0.00 0.00 26 1006.2
20260504030025 72 142 2.0 5.0 0.00 0.00 0.00 28 1006.2
20260504025508 72 126 1.0 3.0 0.00 0.00 0.00 28 1006.2
20260504025009 72 72 1.0 7.0 0.00 0.00 0.00 28 1006.2
20260504024506 72 82 1.0 6.0 0.00 0.00 0.00 28 1006.1
20260504024008 72 175 4.0 6.0 0.00 0.00 0.00 28 1006.2
20260504023505 72 188 3.0 7.0 0.00 0.00 0.00 27 1005.9
20260504023014 73 159 3.0 7.0 0.00 0.00 0.00 27 1005.8
20260504022509 73 149 3.0 7.0 0.00 0.00 0.00 27 1005.7
20260504022008 73 175 3.0 7.0 0.00 0.00 0.00 27 1005.7
20260504021522 73 148 2.0 5.0 0.00 0.00 0.00 26 1005.6
20260504021006 73 146 2.0 5.0 0.00 0.00 0.00 26 1005.6
20260504020512 74 153 2.0 7.0 0.00 0.00 0.00 25 1005.6
20260504020025 74 173 2.0 7.0 0.00 0.00 0.00 25 1005.6
20260504015509 74 157 3.0 7.0 0.00 0.00 0.00 25 1005.6
20260504015001 75 179 2.0 5.0 0.00 0.00 0.00 25 1005.5
20260504014520 75 158 3.0 6.0 0.00 0.00 0.00 24 1005.5
20260504014005 76 174 3.0 6.0 0.00 0.00 0.00 24 1005.5
20260504013505 76 173 2.0 5.0 0.00 0.00 0.00 23 1005.5
20260504013017 77 167 3.0 7.0 0.00 0.00 0.00 23 1005.5
20260504012509 77 188 3.0 7.0 0.00 0.00 0.00 22 1005.5
20260504012008 78 161 2.0 6.0 0.00 0.00 0.00 22 1005.5
20260504011522 78 161 3.0 8.0 0.00 0.00 0.00 21 1005.6
20260504011010 79 173 3.0 11.0 0.00 0.00 0.00 20 1005.7
20260504010509 79 179 4.0 11.0 0.00 0.00 0.00 20 1005.6
20260504010024 79 187 5.0 10.0 0.00 0.00 0.00 19 1005.7
20260504005510 80 205 4.0 13.0 0.00 0.00 0.00 19 1005.7
20260504005006 80 217 6.0 13.0 0.00 0.00 0.00 19 1005.7
20260504004514 80 202 6.0 13.0 0.00 0.00 0.00 19 1005.8
20260504004006 80 212 7.0 13.0 0.00 0.00 0.00 19 1005.8
20260504003505 81 197 6.0 12.0 0.00 0.00 0.00 19 1005.9
20260504003017 81 182 5.0 12.0 0.00 0.00 0.00 18 1005.9
20260504002506 81 224 5.0 17.0 0.00 0.00 0.00 18 1006.0
20260504002008 82 211 8.0 17.0 0.00 0.00 0.00 18 1006.1
20260504001522 82 223 7.0 20.0 0.00 0.00 0.00 17 1006.1
20260504001007 83 249 8.0 20.0 0.00 0.00 0.00 17 1006.1
20260504000506 83 212 10.0 21.0 0.00 0.00 0.00 17 1006.2
20260504000026 83 215 11.0 21.0 0.00 0.00 0.00 18 1006.3
20260503235503 83 240 8.0 21.0 0.00 0.00 0.00 17 1006.4
20260503235006 83 229 8.0 20.0 0.00 0.00 0.00 16 1006.4
20260503234516 83 187 8.0 20.0 0.00 0.00 0.00 16 1006.4
20260503234006 83 215 10.0 17.0 0.00 0.00 0.00 16 1006.5
20260503233505 83 166 8.0 17.0 0.00 0.00 0.00 16 1006.5
20260503233023 83 180 7.0 17.0 0.00 0.00 0.00 16 1006.6
20260503232509 83 213 10.0 18.0 0.00 0.00 0.00 15 1006.7
20260503232010 83 206 9.0 21.0 0.00 0.00 0.00 15 1006.7
20260503231525 83 232 10.0 23.0 0.00 0.00 0.00 16 1006.8
20260503231013 84 219 11.0 22.0 0.00 0.00 0.00 16 1006.9
20260503230508 84 215 9.0 21.0 0.00 0.00 0.00 15 1007.0
20260503230012 84 271 10.0 19.0 0.00 0.00 0.00 15 1007.1
20260503225503 85 257 10.0 18.0 0.00 0.00 0.00 15 1006.9
20260503225012 85 201 6.0 17.0 0.00 0.00 0.00 16 1007.0
20260503224518 85 179 8.0 14.0 0.00 0.00 0.00 14 1006.9
20260503224007 85 262 7.0 18.0 0.00 0.00 0.00 15 1007.0
20260503223507 85 186 7.0 18.0 0.00 0.00 0.00 14 1007.1
20260503223023 85 187 6.0 14.0 0.00 0.00 0.00 15 1007.2
20260503222506 85 241 6.0 14.0 0.00 0.00 0.00 15 1007.3
20260503222010 86 186 6.0 20.0 0.00 0.00 0.00 14 1007.3
20260503221527 86 207 7.0 20.0 0.00 0.00 0.00 14 1007.4
20260503221010 86 183 9.0 19.0 0.00 0.00 0.00 14 1007.4
20260503220512 86 207 8.0 19.0 0.00 0.00 0.00 14 1007.6
20260503220016 86 233 6.0 15.0 0.00 0.00 0.00 14 1007.7
20260503215507 87 254 3.0 16.0 0.00 0.00 0.00 15 1007.8
20260503215007 87 231 8.0 16.0 0.00 0.00 0.00 14 1007.9
20260503214519 87 222 7.0 19.0 0.00 0.00 0.00 13 1007.8
20260503214008 87 278 9.0 18.0 0.00 0.00 0.00 13 1007.9
20260503213511 87 229 7.0 17.0 0.00 0.00 0.00 15 1007.9
20260503213024 87 213 8.0 16.0 0.00 0.00 0.00 15 1008.0
20260503212510 88 229 7.0 20.0 0.00 0.00 0.00 15 1008.1
20260503212011 88 215 8.0 20.0 0.00 0.00 0.00 15 1008.3
20260503211527 88 170 5.0 17.0 0.00 0.00 0.00 16 1008.2
20260503211016 88 219 10.0 17.0 0.00 0.00 0.00 16 1008.4
20260503210506 88 242 6.0 17.0 0.00 0.00 0.00 16 1008.5
20260503210016 87 233 7.0 19.0 0.00 0.00 0.00 17 1008.7
20260503205510 87 247 9.0 19.0 0.00 0.00 0.00 16 1008.8
20260503205007 87 176 5.0 17.0 0.00 0.00 0.00 18 1009.0
20260503204527 87 237 9.0 17.0 0.00 0.00 0.00 17 1009.3
20260503204009 87 267 5.0 13.0 0.00 0.00 0.00 18 1009.3
20260503203509 87 205 5.0 23.0 0.00 0.00 0.00 16 1009.3
20260503203028 87 253 8.0 23.0 0.00 0.00 0.00 16 1009.5
20260503202511 87 181 12.0 21.0 0.00 0.00 0.00 16 1009.5
20260503202013 87 207 6.0 21.0 0.00 0.00 0.00 17 1009.5
20260503201528 87 190 10.0 21.0 0.00 0.00 0.00 16 1009.7
20260503201006 87 216 7.0 20.0 0.00 0.00 0.00 16 1009.8
20260503200508 87 250 7.0 17.0 0.00 0.00 0.00 16 1009.8
20260503200022 87 227 8.0 15.0 0.00 0.00 0.00 16 1009.9
20260503195504 86 185 8.0 14.0 0.00 0.00 0.00 18 1009.8
20260503195002 86 250 7.0 15.0 0.00 0.00 0.00 19 1009.9
20260503194505 85 237 7.0 17.0 0.00 0.00 0.00 18 1010.0
20260503194002 85 219 9.0 19.0 0.00 0.00 0.00 17 1010.1
20260503193504 85 240 8.0 19.0 0.00 0.00 0.00 19 1010.0
20260503193017 84 208 6.0 16.0 0.00 0.00 0.00 18 1010.1
20260503192503 84 267 8.0 17.0 0.00 0.00 0.00 16 1010.4
20260503192007 84 199 10.0 18.0 0.00 0.00 0.00 16 1010.5
20260503191518 84 196 6.0 18.0 0.00 0.00 0.00 18 1010.6
20260503191008 84 259 7.0 21.0 0.00 0.00 0.00 17 1010.5
20260503190506 85 201 8.0 21.0 0.00 0.00 0.00 18 1010.6
20260503190021 84 249 5.0 19.0 0.00 0.00 0.00 18 1010.7
20260503185503 84 263 5.0 19.0 0.00 0.00 0.00 19 1010.9
20260503185003 84 190 7.0 17.0 0.00 0.00 0.00 20 1010.9
20260503184506 83 185 7.0 13.0 0.00 0.00 0.00 18 1011.0
20260503184006 83 216 5.0 17.0 0.00 0.00 0.00 19 1011.1
20260503183504 83 225 9.0 17.0 0.00 0.00 0.00 20 1011.2
20260503183014 83 228 7.0 18.0 0.00 0.00 0.00 17 1011.3
20260503182503 83 241 8.0 18.0 0.00 0.00 0.00 17 1011.4
20260503182007 83 252 8.0 15.0 0.00 0.00 0.00 21 1011.5
20260503181519 83 235 7.0 20.0 0.00 0.00 0.00 18 1011.5
20260503181008 83 225 6.0 20.0 0.00 0.00 0.00 21 1011.6
20260503180509 83 178 8.0 19.0 0.00 0.00 0.00 21 1011.7
20260503180013 83 213 9.0 19.0 0.00 0.00 0.00 19 1011.8
20260503175503 83 207 8.0 18.0 0.00 0.00 0.00 20 1011.9
20260503175003 83 198 8.0 16.0 0.00 0.00 0.00 21 1012.0
20260503174510 83 252 8.0 20.0 0.00 0.00 0.00 21 1012.2
20260503174006 83 271 6.0 20.0 0.00 0.00 0.00 22 1012.2
20260503173506 84 219 6.0 16.0 0.00 0.00 0.00 20 1012.3
20260503173022 84 213 8.0 14.0 0.00 0.00 0.00 18 1012.4
20260503172508 84 194 6.0 16.0 0.00 0.00 0.00 18 1012.4
20260503172010 84 271 6.0 17.0 0.00 0.00 0.00 20 1012.4
20260503171524 84 252 7.0 18.0 0.00 0.00 0.00 18 1012.5
20260503171008 83 223 7.0 15.0 0.00 0.00 0.00 17 1012.6
20260503170502 83 266 6.0 19.0 0.00 0.00 0.00 20 1012.6
20260503151003 73 255 8.0 17.0 0.00 0.00 0.00 33 1013.6
20260503150503 72 202 3.0 17.0 0.00 0.00 0.00 35 1013.6
20260503131005 54 231 4.0 10.0 0.00 0.00 0.00 64 1014.5
20260503130507 53 260 3.0 11.0 0.00 0.00 0.00 65 1014.5
20260503110503 51 222 4.0 9.0 0.00 0.00 0.00 66 1014.2